Flag for Philippines Weather past 2 weeks in Makati, Philippines

Now
79 °F

Passing clouds.


Feels Like: 83 °F
Forecast: 76 / 87 °F
Wind: 2 mph from North

Location: National Airport

Current Time: Aug 23, 2014 at 6:09:58 AM

Latest Report: Aug 23, 2014 at 5:00 AM


Visibility: N/A

Pressure: 29.80 "Hg

Humidity: 94%

Dew point: 77 °F

Location of MakatiLocation

Historic Weather in Makati — Graph

°F

Makati temperature yesterday

Maximum temperature yesterday: 86 °F (at 9:00 AM)
Minimum temperature yesterday: 77 °F (at 3:00 AM)
Average temperature yesterday: 83 °F

Past Weeks' High & Low Weather Summary

 TemperatureHumidityPressure
High95 °F (Aug 19, 2:00 PM)100% (Aug 10, 3:00 AM)29.92 "Hg (Aug 10, 3:00 AM)
Low70 °F (Aug 21, 5:00 PM)44% (Aug 19, 1:00 PM)29.71 "Hg (Aug 11, 2:00 PM)
Average83 °F83%29.82 "Hg
* Reported Aug 8 5:00 AM — Aug 23 5:00 AM, Makati, Weather by CustomWeather, © 2014

Note: Actual official high and low records may vary slightly from our data, if they occured in-between our weather recording intervals... More about our weather records

Advertising

Makati weather history for previous 24 hours

 ConditionsComfort  
Time TempWeatherWind HumidityBarometerVisibility
5:00 AM
Aug 23
79 °FPassing clouds.2 mph94%29.80 "HgN/A
4:00 AM79 °FPassing clouds.No wind94%29.80 "HgN/A
3:00 AM79 °FPassing clouds.1 mph94%29.80 "HgN/A
2:00 AM79 °FPartly cloudy.3 mph94%29.80 "HgN/A
1:00 AM81 °FPassing clouds.5 mph89%29.80 "HgN/A
12:00 AM81 °FPassing clouds.3 mph94%29.83 "HgN/A
11:00 PM
Aug 22
82 °FPartly cloudy.5 mph89%29.83 "HgN/A
10:00 PM82 °FPartly cloudy.No wind84%29.83 "HgN/A
9:00 PM82 °FPartly cloudy.No wind79%29.83 "HgN/A
8:00 PM84 °FMostly cloudy.2 mph74%29.80 "HgN/A
7:00 PM84 °FMostly cloudy.5 mph74%29.80 "HgN/A
6:00 PM86 °FMore clouds than sun.3 mph62%29.77 "HgN/A
5:00 PM86 °FMore clouds than sun.2 mph59%29.77 "HgN/A
4:00 PM86 °FMore clouds than sun.3 mph70%29.74 "HgN/A
3:00 PM86 °FMore clouds than sun.5 mph62%29.77 "HgN/A
2:00 PM86 °FBroken clouds.6 mph59%29.77 "HgN/A
1:00 PM86 °FMore clouds than sun.6 mph62%29.80 "Hg0 mi
12:00 PM84 °FMore clouds than sun.13 mph70%29.83 "HgN/A
11:00 AM84 °FMore clouds than sun.7 mph79%29.83 "HgN/A
10:00 AM86 °FBroken clouds.6 mph75%29.83 "HgN/A
9:00 AM86 °FWarm.5 mph79%29.83 "HgN/A
7:00 AM79 °FBroken clouds.3 mph100%29.80 "HgN/A
6:00 AM79 °FBroken clouds.1 mph100%29.80 "HgN/A
Weather by CustomWeather, © 2014

See weather overviewHow to use our weather pages